DELTA 1 DEB, 40752

Orbit data source: Space-Track

DELTA 1 DEB, 40752 is space debris in LEO originally from a launch on Thu, 29 Jul 1976 UTC launched from the Air Force Western Test Range (AFWTR). Debris objects in space refer to the collection of defunct objects orbiting the Earth. Examples of debris include non-operational satellites, rocket bodies, and fragments generated from explosions, collisions, or faulty payload assembly.

Loading next visibility...
Identifier
40752, 1976-077FV
Orbit
LEO
Last TLE update
6 hours ago
Origin
Manufacturer
Unknown
Mission
Spacecraft
Bus & Motor
Unknown
Mass
Unknown
Launch date (UTC)
1976-07-29 (49 years ago)
Launch vehicle
Unknown
Launch site
Air Force Western Test Range (AFWTR)
Object type
Payload
Rocket body
Debris
Shape & HBR
Unknown
Radar Cross Section
Small (<0.1 m²)

Expand to show TLE details & history

TLE from 6 hours ago
0 DELTA 1 DEB
1 40752U 76077FV  25182.85580634  .00000111  00000-0  26626-2 0  9999
2 40752 102.2223 312.3188 0563341 293.2002 228.9910 11.37624791482149
Epoch: 2025-07-01T20:32Z
TLE epoch observation values (Epoch: 2025-07-01T20:32:21.667Z)
Latitude
21.9353°
Longitude
-90.93457°
Altitude
2,298.042 km
Speed
6.648 km/s
True Right ascension
09h 09m 12s
True Declination
21° 50' 15"
Sunlit
Object was in daylight at epoch
Visualization orbit readout
Latitude
73.34479°
Longitude
-49.58191°
Altitude
2,445.48 km
Speed
6.54 km/s
Apparent Right ascension
03h 59m 20s
Apparent Declination
54° 12' 05"
Sunlit
Object is in daylight
Visualization observer readout
Local Sidereal Time
14:11:30
Azimuth
344.507° N
Elevation
6.924°
Doppler factor
1
Orbital elements
Apogee altitude
2,440.838 km
Perigee altitude
1,500.21 km
Semi-major axis
8,348.661 km
Eccentricity
0.05633
Inclination
102.2223°
RAAN
312.3188°
Arg. of periapsis
293.2002°
True anomaly
Unknown
Mean anomaly
228.991°
Eccentric anomaly
Unknown
Mean motion
2.84523 °/min
Orbital period
126.53 mins
BSTAR
0.0026626
Loading maneuver chart data...
Loading SW <> Apogee altitude chart data...
Loading historical data...
Loading historical data...
Loading historical data...
Loading historical data...
Loading historical data...
Loading historical data...
Loading historical data...

DELTA 1 DEB Visibility forecast

Observer location: undefined°, undefined°

Span
Click to sort rows by Start time (UTC) header in descending order
Start Az.
Max El. time (UTC)
Max El. Az.
Max El.
End time (UTC)
End Az.
17 mins2025-07-02 06:17:25.454Z95.907° ESE2025-07-02 06:25:25.454Z45.915° ENE25.214°2025-07-02 06:34:25.454Z357.015° N
21 mins2025-07-02 08:18:25.454Z159.221° S2025-07-02 08:27:25.454Z334.935° NNW44.994°2025-07-02 08:39:25.454Z342.458° N
13 mins2025-07-02 10:27:25.454Z237.137° WSW2025-07-02 10:32:25.454Z269.75° W20.149°2025-07-02 10:40:25.454Z315.576° NNW
16 mins2025-07-02 19:31:25.454Z45.189° ENE2025-07-02 19:39:25.454Z87.097° E21.359°2025-07-02 19:47:25.454Z131.643° SE
23 mins2025-07-02 21:33:25.454Z18.739° NNE2025-07-02 21:44:25.454Z55.657° ENE44.844°2025-07-02 21:56:25.454Z198.946° SSW
19 mins2025-07-02 23:37:25.454Z2.724° NNE2025-07-02 23:47:25.454Z307.419° NW27.866°2025-07-02 23:56:25.454Z257.874° W
|